Location: Bosdarros
(43.2167°N, 0.3667°W)
Time: 12:26:24
(UTC+00:00)

FENGYUN 1C DEB - Pass Details

Date: 28 October 2021
Orbit: 805 x 871 km, 98.8° (Epoch: 26 November)

Event Time Altitude Azimuth Distance (km) Brightness Sun altitude
Exits shadow 18:02:26 17° 86° (E) 1,968 ? -12.2°
Maximum altitude 18:04:14 20° 61° (ENE) 1,818 ? -12.5°
Drops below altitude 10° 18:07:56 10° 16° (NNE) 2,413 ? -13.2°
Sets 18:10:53 0° 0° (N) 3,359 ? -13.7°
